Ahoskie, NC

5:16 PM EST on November 13, 2019 (GMT -0500)
Tri County

Weather History for KASJ - October, 2019

Change the Weather History Date:

Monday, October 21, 2019

  Actual Average (WUND) Record (WUND)
Temperature  
Mean Temperature 58 °F -  
Max Temperature 59 °F - - (-1)
Min Temperature 56 °F - - (-1)
Degree Days  
Heating Degree Days 8    
Growing Degree Days 8 (Base 50)    
Moisture  
Dew Point 57 °F    
Average Humidity 98    
Maximum Humidity 100    
Minimum Humidity 91    
Precipitation  
Precipitation 0.00 in - - ()
Sea Level Pressure  
Sea Level Pressure 30.05 in    
Wind  
Wind Speed 4 mph ()    
Max Wind Speed 8 mph    
Max Gust Speed 17 mph    
Visibility 9.3 miles    
Events Rain    
Averages and records for this station are not official NWS values.
T = Trace of Precipitation, MM = Missing Value Source: Averaged Metar Reports

Daily Weather History Graph

Daily Weather History Graph

Search for Another Location

Airport or City:

Astronomy

Oct. 21, 2019 Rise Set
Actual Time 7:20 AM EDT 6:25 PM EDT
Civil Twilight 6:54 AM EDT 6:51 PM EDT
Nautical Twilight 6:24 AM EDT 7:21 PM EDT
Astronomical Twilight 5:54 AM EDT 7:51 PM EDT
Moon No Moon Rise 2:31 PM EDT (10/21)
Length of Visible Light 11h 56m
Length of Day
11h 04m
Waning Gibbous, 48% of the Moon is Illuminated
Oct 21
Waning Gibbous
Oct 27
New
Nov 4
First Quarter
Nov 12
Full
Nov 19
Last Quarter

Hourly Weather History & Observations

Time (EDT) Temp. Dew Point Humidity Pressure Visibility Wind Dir Wind Speed Gust Speed Precip Events Conditions
12:15 AM 57.2 °F 57.2 °F 100% 29.92 in 4.0 mi NNW 8.1 mph - N/A   Heavy Drizzle
12:35 AM 57.2 °F 57.2 °F 100% 29.93 in 5.0 mi NW 6.9 mph - N/A   Drizzle
12:55 AM 56.8 °F 56.8 °F 100% 29.93 in 5.0 mi NW 5.8 mph - N/A   Drizzle
1:15 AM 56.7 °F 56.7 °F 100% 29.93 in 7.0 mi NW 5.8 mph - N/A Rain Light Rain
1:35 AM 56.7 °F 56.7 °F 100% 29.94 in 10.0 mi NW 6.9 mph - N/A   Overcast
1:55 AM 56.7 °F 56.7 °F 100% 29.94 in 10.0 mi NNW 6.9 mph 17.3 mph N/A   Overcast
2:15 AM 57.0 °F 57.0 °F 100% 29.95 in 10.0 mi NNW 5.8 mph - N/A   Overcast
2:35 AM 57.2 °F 57.2 °F 100% 29.96 in 10.0 mi NNW 6.9 mph - N/A   Overcast
2:55 AM 57.2 °F 57.2 °F 100% 29.96 in 10.0 mi NNW 6.9 mph - N/A   Overcast
3:15 AM 57.2 °F 56.8 °F 99% 29.96 in 10.0 mi NNW 8.1 mph - N/A   Overcast
3:35 AM 57.2 °F 56.7 °F 98% 29.96 in 10.0 mi NNW 5.8 mph - N/A   Overcast
3:55 AM 57.0 °F 56.8 °F 99% 29.97 in 10.0 mi Calm Calm - N/A   Overcast
4:15 AM 56.8 °F 56.7 °F 99% 29.97 in 10.0 mi NNW 6.9 mph - N/A   Overcast
4:35 AM 57.2 °F 56.7 °F 98% 29.98 in 10.0 mi NNW 4.6 mph - N/A   Overcast
4:55 AM 56.8 °F 56.3 °F 98% 29.97 in 10.0 mi North 5.8 mph - N/A   Overcast
5:15 AM 56.8 °F 56.5 °F 99% 29.98 in 10.0 mi North 5.8 mph - N/A   Overcast
5:35 AM 56.8 °F 56.5 °F 99% 29.99 in 10.0 mi North 4.6 mph - N/A   Overcast
5:55 AM 56.7 °F 56.5 °F 99% 30.00 in 10.0 mi NNW 3.5 mph - N/A   Overcast
6:15 AM 56.5 °F 56.5 °F 100% 30.00 in 10.0 mi NNW 4.6 mph - N/A   Overcast
6:35 AM 56.5 °F 56.5 °F 100% 30.01 in 10.0 mi Calm Calm - N/A   Overcast
6:55 AM 56.5 °F 56.5 °F 100% 30.02 in 10.0 mi North 6.9 mph - N/A   Overcast
7:15 AM 56.5 °F 56.5 °F 100% 30.03 in 10.0 mi North 5.8 mph - N/A   Overcast
7:35 AM 56.5 °F 56.5 °F 100% 30.04 in 10.0 mi Calm Calm - N/A   Overcast
7:55 AM 56.3 °F 56.3 °F 100% 30.05 in 10.0 mi NNW 3.5 mph - N/A   Overcast
8:15 AM 56.3 °F 56.3 °F 100% 30.06 in 10.0 mi NNW 3.5 mph - N/A   Overcast
8:35 AM 56.5 °F 56.5 °F 100% 30.07 in 10.0 mi NNW 3.5 mph - N/A   Overcast
8:55 AM 56.5 °F 56.5 °F 100% 30.07 in 10.0 mi NW 3.5 mph - N/A   Overcast
9:15 AM 56.5 °F 56.5 °F 100% 30.08 in 10.0 mi NNW 4.6 mph - N/A   Overcast
9:35 AM 56.5 °F 56.5 °F 100% 30.08 in 10.0 mi North 5.8 mph - N/A   Overcast
9:55 AM 57.0 °F 56.3 °F 97% 30.08 in 10.0 mi North 6.9 mph - N/A   Overcast
10:15 AM 57.2 °F 56.5 °F 97% 30.08 in 10.0 mi North 4.6 mph - N/A   Overcast
10:35 AM 57.2 °F 56.7 °F 98% 30.08 in 10.0 mi NNW 3.5 mph - N/A   Overcast
10:55 AM 57.2 °F 56.5 °F 97% 30.09 in 10.0 mi North 6.9 mph - N/A   Overcast
11:15 AM 57.4 °F 56.5 °F 97% 30.09 in 10.0 mi North 5.8 mph - N/A   Overcast
11:35 AM 58.1 °F 56.5 °F 94% 30.10 in 10.0 mi North 4.6 mph - N/A   Overcast
11:55 AM 57.7 °F 56.3 °F 95% 30.11 in 10.0 mi Calm Calm - N/A   Overcast
12:15 PM 57.7 °F 56.5 °F 96% 30.11 in 10.0 mi NNW 4.6 mph - N/A   Overcast
12:35 PM 58.1 °F 56.7 °F 95% 30.12 in 10.0 mi North 3.5 mph - N/A   Overcast
12:55 PM 58.3 °F 56.7 °F 94% 30.11 in 10.0 mi North 3.5 mph - N/A   Overcast
1:15 PM 58.6 °F 57.2 °F 95% 30.10 in 10.0 mi NW 3.5 mph - N/A   Overcast
1:35 PM 58.1 °F 57.0 °F 96% 30.10 in 10.0 mi NNW 3.5 mph - N/A   Overcast
1:55 PM 58.8 °F 57.4 °F 95% 30.09 in 10.0 mi Calm Calm - N/A   Overcast
2:15 PM 59.2 °F 56.8 °F 92% 30.08 in 10.0 mi NNW 4.6 mph - N/A   Overcast
2:35 PM 59.0 °F 57.2 °F 94% 30.07 in 10.0 mi North 4.6 mph - N/A   Overcast
2:55 PM 59.0 °F 57.0 °F 93% 30.07 in 10.0 mi Calm Calm - N/A   Overcast
3:15 PM 59.2 °F 56.5 °F 91% 30.08 in 10.0 mi Calm Calm - N/A   Overcast
3:55 PM 59.9 °F 57.2 °F 91% 30.08 in 10.0 mi NNE 3.5 mph - N/A   Overcast
4:15 PM 59.2 °F 56.7 °F 91% 30.07 in 10.0 mi Calm Calm - N/A   Overcast
4:35 PM 59.4 °F 57.0 °F 92% 30.07 in 10.0 mi Calm Calm - N/A   Overcast
4:55 PM 59.2 °F 57.6 °F 94% 30.07 in 10.0 mi Calm Calm - N/A   Overcast
5:15 PM 59.0 °F 57.2 °F 94% 30.08 in 10.0 mi Calm Calm - N/A   Overcast
5:35 PM 59.0 °F 57.2 °F 94% 30.08 in 10.0 mi Calm Calm - N/A   Overcast
5:55 PM 59.0 °F 57.4 °F 94% 30.09 in 10.0 mi SSE 3.5 mph - N/A   Overcast
6:15 PM 58.6 °F 57.2 °F 95% 30.08 in 10.0 mi Calm Calm - N/A   Overcast
6:35 PM 58.3 °F 57.4 °F 97% 30.09 in 10.0 mi Calm Calm - N/A   Overcast
6:55 PM 58.1 °F 57.6 °F 98% 30.09 in 10.0 mi Calm Calm - N/A   Overcast
7:15 PM 58.1 °F 57.6 °F 98% 30.10 in 10.0 mi Calm Calm - N/A   Overcast
7:35 PM 58.1 °F 57.4 °F 97% 30.10 in 10.0 mi Calm Calm - N/A   Overcast
7:55 PM 58.1 °F 57.4 °F 97% 30.09 in 10.0 mi Calm Calm - N/A   Overcast
8:15 PM 57.7 °F 57.7 °F 100% 30.10 in 10.0 mi Calm Calm - N/A   Overcast
8:35 PM 57.7 °F 57.7 °F 100% 30.11 in 10.0 mi Calm Calm - N/A   Overcast
8:55 PM 57.6 °F 57.6 °F 100% 30.11 in 10.0 mi Calm Calm - N/A   Overcast
9:15 PM 57.4 °F 57.4 °F 100% 30.10 in 10.0 mi Calm Calm - N/A   Overcast
9:55 PM 57.2 °F 57.2 °F 100% 30.11 in 10.0 mi Calm Calm - N/A   Overcast
10:15 PM 57.4 °F 57.4 °F 100% 30.11 in 10.0 mi Calm Calm - N/A   Overcast
10:35 PM 57.0 °F 57.0 °F 100% 30.11 in 5.0 mi Calm Calm - N/A   Light Drizzle
10:55 PM 56.8 °F 56.8 °F 100% 30.12 in 5.0 mi Calm Calm - N/A   Drizzle
11:15 PM 56.8 °F 56.8 °F 100% 30.11 in 4.0 mi Calm Calm - N/A   Drizzle
11:35 PM 56.7 °F 56.7 °F 100% 30.10 in 4.0 mi Calm Calm - N/A   Light Drizzle
11:55 PM 56.7 °F 56.7 °F 100% 30.10 in 4.0 mi Calm Calm - N/A   Drizzle